This demonstration page uses our WeatherBlox Daily Observations layout. Learn more.

Left ArrowRight Arrow

Hourly Observations for August 11, 2020

Temp ( °F °C ) Dew Point ( °F °C ) Humidity (%) Winds ( mph kmh ) Pressure ( in mb ) Visibility ( mi km ) Precip ( " mm )
12:06 am 00:06 Partly Cloudy 68 20 62 16.7 81 81 ENE 6 9 29.96 1014 10 16 0.00 0.00
12:53 am 00:53 Clear 67 19.4 62 16.7 84 84 E 8 13 29.98 1015 10 16 0.00 0.00
1:53 am 01:53 Mostly Cloudy 67 19.4 62 16.7 84 84 NE 6 9 29.98 1015 10 16 0.00 0.00
2:01 am 02:01 Mostly Cloudy 67 19.4 62 16.7 84 84 ENE 6 9 29.97 1015 10 16 0.00 0.00
2:53 am 02:53 Cloudy 68 20 62 16.7 81 81 ESE 5 7 29.98 1015 10 16 0.00 0.00
3:37 am 03:37 Cloudy 69 20.6 62 16.7 78 78 ESE 7 11 29.96 1015 10 16 0.00 0.00
3:48 am 03:48 Mostly Cloudy 70 21 63 17 78 78 ESE 8 13 29.96 1015 10 16 0.00 0.00
3:53 am 03:53 Mostly Cloudy 69 20.6 62 16.7 78 78 ESE 8 13 29.97 1015 10 16 0.00 0.00
4:03 am 04:03 Partly Cloudy 68 20 62 16.7 81 81 ESE 7 11 29.96 1014 10 16 0.00 0.00
4:53 am 04:53 Clear 67 19.4 61 16.1 81 81 SE 8 13 29.96 1015 10 16 0.00 0.00
5:53 am 05:53 Clear 67 19.4 62 16.7 84 84 ESE 8 13 29.96 1014 10 16 0.00 0.00
6:53 am 06:53 Sunny 66 18.9 62 16.7 87 87 ESE 6 9 29.97 1015 10 16 0.00 0.00
7:53 am 07:53 Sunny 69 20.6 63 17.2 81 81 SE 9 15 29.98 1015 10 16 0.00 0.00
8:53 am 08:53 Sunny 71 21.7 65 18.3 81 81 SSE 10 17 29.98 1015 10 16 0.00 0.00
9:21 am 09:21 Partly Cloudy 73 22.8 67 19.4 81 81 S 10 17 29.95 1014 10 16 0.00 0.00
9:28 am 09:28 Mostly Cloudy 73 22.8 67 19.4 81 81 S 10 17 29.95 1014 10 16 0.00 0.00
9:53 am 09:53 Cloudy 73 22.8 68 20 84 84 SSE 10 17 29.98 1015 10 16 0.00 0.00
10:39 am 10:39 Partly Cloudy 78 25.6 70 21.1 76 76 S 8 13 29.92 1013 8 13 0.00 0.00
10:53 am 10:53 Sunny 79 26.1 70 21.1 74 74 SSE 6 9 29.96 1015 10 16 0.00 0.00
11:53 am 11:53 Sunny 83 28.3 68 20 61 61 S 9 15 29.96 1015 10 16 0.00 0.00
12:53 pm 12:53 Sunny 87 30.6 65 18.3 48 48 S 9 15 29.94 1014 10 16 0.00 0.00
1:53 pm 13:53 Sunny 87 30.6 68 20 53 53 SE 12 19 29.93 1014 10 16 0.00 0.00
2:53 pm 14:53 Sunny 89 31.7 64 17.8 43 43 SSW 13 20 29.91 1013 10 16 0.00 0.00
3:53 pm 15:53 Sunny 89 31.7 64 17.8 43 43 S 10 17 29.89 1012 10 16 0.00 0.00
4:53 pm 16:53 Sunny 89 31.7 68 20 50 50 SSE 15 24 29.87 1012 10 16 0.00 0.00
5:53 pm 17:53 Sunny 88 31.1 67 19.4 50 50 SSE 13 20 29.87 1012 10 16 0.00 0.00
6:53 pm 18:53 Sunny 85 29.4 67 19.4 55 55 SSE 15 24 29.87 1012 10 16 0.00 0.00
7:53 pm 19:53 Sunny 83 28.3 68 20 61 61 SSE 9 15 29.87 1011 10 16 0.00 0.00
8:53 pm 20:53 Clear 81 27.2 67 19.4 62 62 SSE 9 15 29.87 1012 10 16 0.00 0.00
9:53 pm 21:53 Clear 77 25 68 20 74 74 S 7 11 29.93 1014 10 16 0.00 0.00
10:53 pm 22:53 Partly Cloudy 77 25 68 20 74 74 SSE 7 11 29.96 1014 10 16 0.00 0.00
11:53 pm 23:53 Clear 78 25.6 66 18.9 67 67 SSE 10 17 29.90 1012 10 16 0.00 0.00

Powered by AerisWeather